Regional Weather Roundup
Issued by NWS

Home | Current Version | Previous Version | Graphics & Text | Print | Product List | Glossary On
Versions: 1 2 3 4 5 6 7 8 9 10 11 12 13 14 15 16 17 18 19 20 21 22 23 24 25 26 27 28 29 30 31 32 33 34 35 36 37 38 39 40 41 42 43 44 45 46 47 48 49 50
000
ASUS43 KDMX 011207
RWRIA

WEATHER ROUNDUP FOR IOWA
NATIONAL WEATHER SERVICE DES MOINES IA
700 AM CDT SAT AUG 01 2015

NOTE: "FAIR" INDICATES FEW OR NO CLOUDS BELOW 12,000 FEET WITH NO
SIGNIFICANT WEATHER AND/OR OBSTRUCTIONS TO VISIBILITY.

* - THESE STATIONS ARE NOT NWS STATIONS...THUS NOT UNDER NWS
QUALITY CONTROL.  THEY ALSO DO NOT REPORT WEATHER SUCH
AS PRECIPITATION OR FOG.

IAZ001>003-012>014-020>022-031>034-043>046-011300-
   NORTHWEST IOWA

CITY           SKY/WX    TMP DP  RH WIND       PRES   REMARKS
CARROLL *      CLEAR     64  64 100 CALM      30.04R
CHEROKEE *     CLEAR     58  58 100 CALM      30.02S
DENISON *      CLEAR     64  64 100 CALM      30.03R
LE MARS *      CLEAR     61  61 100 SW5       30.03R
ORANGE CITY *  CLEAR     63  61  94 S3        30.02R
SHELDON *      CLEAR     64  63  94 S6        30.00R
SIOUX CITY     FOG       65  63  93 S3        30.03R VSB 1/4
6HR MIN TEMP:  62; 6HR MAX TEMP:  71;

SPENCER        CLEAR     65  60  84 CALM      30.01F
6HR MIN TEMP:  60; 6HR MAX TEMP:  65;

STORM LAKE *   CLEAR     64  63  94 SW8       30.04R
$$

IAZ055>058-069>071-079>083-090>094-011300-
   SOUTHWEST IOWA

CITY           SKY/WX    TMP DP  RH WIND       PRES   REMARKS
ATLANTIC *     PTCLDY    64  64 100 CALM      30.05R FOG
AUDUBON *      CLEAR     63  61  94 CALM      30.06R
CLARINDA *     CLEAR     66  66 100 CALM      30.07R
COUNCIL BLFS * CLEAR     68  66  94 CALM      30.05R
CRESTON *      CLEAR     66  64  94 CALM      30.07R
HARLAN  *      CLEAR     63  63 100 CALM      30.08R
LAMONI         CLEAR     70  66  87 CALM      30.05S
6HR MIN TEMP:  67; 6HR MAX TEMP:  71;

RED OAK *      CLEAR     66  66 100 CALM      30.05R
SHENANDOAH *   CLEAR     68  66  94 NE3       30.05R
$$

IAZ047>049-059>061-072>074-084-011300-
   CENTRAL IOWA

CITY           SKY/WX    TMP DP  RH WIND       PRES   REMARKS
AMES           CLEAR     60  59  96 CALM      30.02S
6HR MIN TEMP:  58; 6HR MAX TEMP:  64;

ANKENY *       CLEAR     61  61 100 CALM      30.03S
CHARITON *     PTCLDY    68  64  88 S5        30.04S
DES MOINES     PTCLDY    69  65  86 S5        30.03R
6HR MIN TEMP:  68; 6HR MAX TEMP:  75;

GRINNELL*      CLEAR     64  63  94 SW6       30.04S
KNOXVILLE *    CLEAR     66  61  82 S6        30.03R
MARSHALLTOWN     N/A     63  60  90 S3        30.02S
6HR MIN TEMP:  59; 6HR MAX TEMP:  65;

PELLA *        CLEAR     65  65 100 SW3       30.04S
PERRY *          N/A     64  64 100 S3        30.04R
$$

IAZ004>006-015-016-023>025-035-036-011300-
   NORTH CENTRAL IOWA

CITY           SKY/WX    TMP DP  RH WIND       PRES   REMARKS
ALGONA *       CLEAR     64  61  88 SW8       30.01S
CLARION *      CLEAR     61  59  94 S6        30.02R
ESTHERVILLE    CLEAR     63  61  93 SW3       30.01R
6HR MIN TEMP:  60; 6HR MAX TEMP:  65;

FORT DODGE *   CLEAR     63  59  88 CALM      30.03S
MASON CITY     CLEAR     69  63  81 W10       30.01S
6HR MIN TEMP:  58; 6HR MAX TEMP:  69;

FOREST CITY *  CLEAR     61  61 100 SW3       30.01S
IOWA FALLS *     N/A     63  60  90 SW5       30.03S
$$

IAZ007>011-017>019-026>030-037>042-050>054-066-011300-
   NORTHEAST IOWA

CITY           SKY/WX    TMP DP  RH WIND       PRES   REMARKS
CEDAR RAPIDS   CLEAR     60  60 100 CALM      30.02R
6HR MIN TEMP:  57; 6HR MAX TEMP:  64;

CHARLES CITY * CLEAR     61  61 100 SW5       30.01S
CLINTON *      SUNNY     57  57 100 W3        30.04S
DECORAH *      CLEAR     61  59  94 CALM      30.00S
DUBUQUE        SUNNY     59  57  93 SW6       30.02S
6HR MIN TEMP:  57; 6HR MAX TEMP:  62;

MONTICELLO *   SUNNY     59  57  94 CALM      30.02S
OELWEIN *      CLEAR     59  59 100 S3        30.02S
WATERLOO       CLEAR     60  57  89 CALM      29.99F
6HR MIN TEMP:  57; 6HR MAX TEMP:  63;

$$

IAZ064-065-067-068-078-011300-
   EAST CENTRAL IOWA

CITY           SKY/WX    TMP DP  RH WIND       PRES   REMARKS
DAVENPORT      SUNNY     61  59  93 CALM      30.03S
6HR MIN TEMP:  57; 6HR MAX TEMP:  62;

IOWA CITY      CLEAR     62  59  90 CALM      30.03S
6HR MIN TEMP:  60; 6HR MAX TEMP:  66;

MT. PLEASANT * CLEAR     63  60  89 CALM      30.05R
MUSCATINE *    CLEAR     61  59  94 CALM      30.03S
QUAD CITIES    SUNNY     62  58  86 CALM      30.02S
6HR MIN TEMP:  58; 6HR MAX TEMP:  65;

$$

IAZ062-063-075>077-085>089-095>099-011300-
   SOUTHEAST IOWA

CITY           SKY/WX    TMP DP  RH WIND       PRES   REMARKS
BURLINGTON     CLEAR     62  60  93 CALM      30.04R
6HR MIN TEMP:  60; 6HR MAX TEMP:  66;

FAIRFIELD *    CLEAR     63  61  94 CALM      30.04S
FORT MADISON * CLEAR     63  61  94 CALM      30.06R
KEOKUK *       CLEAR     66  64  94 CALM      30.05R
OSKALOOSA *      N/A     63  62  97 CALM      30.04S
CENTERVILLE *  PTCLDY    66  66 100 CALM      30.06S
OTTUMWA        CLEAR     65  65 100 S3        30.02S
6HR MIN TEMP:  61; 6HR MAX TEMP:  70;

WASHINGTON *   CLEAR     61  61 100 SW3       30.05S
$$

ABBREVIATIONS USED IN REMARKS
   TC - TEMPERATURES IN CELSIUS
  WCI - WIND CHILL INDEX
   HX - HEAT INDEX
  VSB - VISIBILITY
$$




USA.gov is the U.S. government's official web portal to all federal, state and local government web resources and services.